Wind_Speed
38 37 37 38 38 38 35 32 29 27 26 25 24 23 22 21 19 18 16 14 14 13 12 11 11 9 9 8 8 7 7 6 5 4 4 4 4 3 4 4 4 5 6 6 7 8 8 9 9
41 40 40 40 41 39 35 32 29 29 28 26 26 25 24 22 21 19 17 16 15 14 14 13 13 11 10 9 9 8 8 7 7 6 6 5 5 5 5 6 6 7 7 7 8 8 9 10 11
43 43 43 43 43 40 36 33 31 30 30 29 28 26 25 24 22 21 19 18 17 16 15 14 13 13 12 11 10 10 9 9 9 8 8 8 7 7 7 7 8 8 8 9 9 10 11 12 12
46 46 46 46 44 40 36 34 33 33 32 31 30 29 27 25 24 22 21 20 19 18 17 16 15 14 13 13 12 11 11 11 11 10 10 9 9 9 9 9 9 10 10 10 10 11 12 13 13
48 48 49 49 45 41 38 36 35 35 33 32 31 30 28 27 25 24 23 22 21 20 19 18 17 16 15 14 14 13 12 12 12 12 11 11 11 10 10 10 11 11 11 11 12 12 13 13 13
51 50 50 49 45 42 40 38 37 36 35 34 33 32 30 29 27 26 25 24 23 22 21 19 19 17 17 16 16 15 14 14 14 13 13 13 12 12 12 12 12 12 13 13 13 13 14 14 14
52 52 51 48 46 44 41 40 39 37 36 35 34 33 32 31 29 28 27 26 25 24 23 21 20 19 18 18 17 17 16 15 15 15 15 14 14 13 13 13 13 13 13 14 14 14 15 15 16
51 53 52 50 47 44 42 41 40 38 37 36 36 34 33 32 31 30 29 28 26 26 25 23 22 21 20 19 18 18 17 17 16 16 16 16 15 15 15 15 15 15 15 15 15 16 16 17 17
52 53 53 50 47 45 44 43 42 40 39 38 37 36 35 34 33 32 30 29 28 27 26 25 23 22 21 20 19 19 18 18 18 17 17 17 17 17 17 17 16 16 16 17 17 17 18 18 18
53 53 51 49 48 46 45 44 44 42 41 40 38 37 37 36 35 34 32 31 30 29 27 26 25 24 23 22 22 21 20 20 19 19 19 19 19 19 19 18 18 18 18 18 18 19 19 19 20
52 52 50 49 48 47 46 46 45 44 43 40 39 38 38 37 36 35 34 33 32 31 30 28 28 27 26 25 24 23 22 22 21 21 21 21 21 21 21 20 20 20 20 20 20 20 21 21 21
51 51 51 50 49 48 47 46 46 45 43 42 41 39 38 38 37 36 35 34 34 32 31 30 29 28 27 27 26 25 24 23 23 23 23 23 23 23 23 22 22 22 22 22 22 22 22 22 23
50 50 51 51 50 49 48 48 46 45 44 43 42 41 39 38 38 37 37 36 36 35 34 33 32 31 30 29 27 26 26 25 25 25 25 25 25 25 25 24 24 24 24 23 23 23 24 25 25
50 50 50 51 51 50 50 49 48 46 45 44 43 42 41 39 38 38 38 37 36 36 35 35 34 33 32 31 30 29 28 28 27 27 27 27 27 27 27 26 26 26 26 25 25 26 26 27 27
50 49 50 50 51 51 51 51 49 47 46 45 44 43 42 41 40 39 38 38 37 36 36 35 35 34 33 32 31 31 30 30 29 29 29 29 29 29 29 28 28 28 27 27 27 28 28 29 29
50 50 49 49 51 51 52 52 50 49 47 46 45 45 44 42 41 40 39 38 38 38 37 37 36 36 35 34 33 32 32 32 31 31 31 30 30 30 30 30 30 30 29 29 29 30 30 30 31
50 50 49 49 50 51 52 52 51 50 49 48 47 46 45 43 42 42 40 39 38 39 39 39 38 38 37 36 35 34 34 34 34 33 33 32 32 32 32 32 31 32 31 31 31 31 32 32 32
48 50 49 49 50 50 52 52 51 51 51 49 48 47 46 44 43 42 41 40 40 39 39 40 40 39 39 38 36 36 36 36 36 35 34 33 33 34 34 34 34 33 33 33 33 33 34 34 34
45 48 48 49 50 50 50 51 51 51 51 50 49 48 47 46 44 44 43 42 41 41 41 41 41 40 40 39 38 37 38 38 37 37 36 36 36 36 36 36 35 35 34 35 35 35 35 35 34
43 45 46 47 48 50 51 51 51 52 51 50 48 47 47 48 46 45 45 45 44 43 42 42 42 42 41 40 40 39 39 39 38 38 38 38 38 38 38 37 36 36 36 36 36 36 36 36 36
41 43 44 45 46 48 51 52 51 52 52 51 50 48 47 48 47 46 46 45 45 44 43 42 42 42 42 42 42 41 41 41 40 39 40 40 40 39 40 39 38 36 36 36 37 37 37 37 36
39 41 42 43 44 47 49 52 51 51 52 52 50 49 47 48 48 48 47 46 45 44 44 44 43 43 43 43 43 43 42 42 41 41 42 42 41 41 41 40 39 39 39 38 38 37 37 37 37
35 36 38 40 42 44 47 50 50 50 51 51 51 50 48 47 48 48 47 46 46 46 45 45 45 45 44 44 43 44 43 43 43 43 43 43 43 43 42 41 40 40 40 40 40 40 40 40 39
34 33 35 38 40 43 45 47 49 48 48 48 49 49 48 47 47 47 47 46 46 46 46 46 46 45 45 45 44 44 44 44 44 44 43 43 43 43 42 41 40 40 41 42 42 41 42 42 41
33 33 33 35 38 41 41 44 46 45 45 46 46 47 47 46 47 47 45 45 45 45 45 46 46 46 46 46 45 45 45 45 44 44 44 43 43 43 42 41 41 41 41 42 42 43 43 43 42
31 33 34 34 36 38 39 42 43 42 43 44 45 46 46 45 46 46 46 45 45 45 45 45 45 45 45 46 45 45 45 46 45 45 44 44 43 42 42 42 42 42 42 43 44 44 43 43 42
28 31 34 34 34 36 38 39 41 41 41 42 44 46 45 44 44 45 46 46 45 45 46 46 45 45 45 45 45 46 46 46 46 45 45 45 45 43 43 43 43 44 44 44 45 44 43 43 43
27 29 31 34 34 35 37 37 38 38 39 41 43 44 45 44 44 44 45 45 46 46 46 46 46 46 47 47 46 46 46 46 47 46 46 46 45 45 44 44 44 45 45 45 45 44 43 44 43
26 29 31 32 34 34 35 36 36 36 37 39 41 43 44 45 45 45 46 46 47 47 47 46 47 47 47 46 46 45 46 46 46 46 46 46 46 46 45 45 45 45 45 44 44 44 45 45 44
24 27 29 31 33 33 34 34 35 36 36 37 39 41 43 45 46 46 47 47 47 47 48 48 48 47 47 47 46 46 46 46 46 46 46 46 46 46 46 46 45 44 44 44 44 44 45 45 45
Wind_Direction
234 233 231 231 231 232 232 231 231 229 229 229 229 229 231 231 230 230 227 227 228 229 228 228 229 229 226 225 223 222 221 222 231 242 249 254 263 275 286 293 304 307 311 314 314 315 315 314 314
234 233 232 231 231 232 232 231 231 230 230 229 230 230 230 230 230 230 229 228 229 230 230 231 233 232 231 231 229 228 228 230 237 246 250 253 261 272 279 288 296 301 306 309 309 309 311 309 309
233 232 232 232 233 232 232 231 231 231 230 229 229 228 229 230 230 230 230 230 231 232 233 234 236 235 236 235 233 234 237 238 241 245 251 253 258 267 276 281 288 294 299 303 304 304 307 306 308
232 231 232 233 233 233 232 231 230 231 230 229 229 229 229 230 230 230 230 231 232 233 233 235 236 237 237 236 238 240 242 242 243 246 250 254 258 266 272 277 283 288 293 296 300 302 302 303 305
231 231 232 233 233 232 231 231 230 231 230 229 229 230 231 230 231 231 231 232 233 234 234 234 236 238 237 237 239 243 245 245 246 248 250 253 258 265 270 274 277 282 286 291 295 299 300 301 303
230 231 232 233 232 232 231 230 230 230 230 230 229 229 230 231 232 232 232 233 234 235 235 235 236 238 239 239 240 243 246 249 250 251 253 255 259 264 269 273 277 279 283 288 292 296 299 301 302
231 230 232 232 232 231 231 230 231 231 230 231 230 229 229 230 231 232 233 234 235 235 236 237 237 238 240 242 242 244 246 249 252 253 256 257 259 264 268 273 277 280 283 287 290 293 296 299 301
230 231 231 231 231 230 230 230 231 231 230 230 230 230 229 230 231 232 233 234 235 236 237 237 239 239 240 242 243 245 247 249 251 252 256 259 261 264 268 271 275 278 282 286 288 291 294 297 299
229 230 230 230 231 230 229 229 229 230 230 230 230 230 230 230 231 231 233 234 235 236 237 238 239 240 241 242 244 246 247 248 251 252 255 259 262 265 268 270 273 277 281 284 286 289 291 294 295
228 229 229 230 230 229 229 229 229 229 229 230 230 230 230 231 232 232 232 234 235 237 238 238 239 240 241 242 244 246 248 250 252 253 256 259 262 265 268 269 272 276 279 281 284 287 290 291 293
229 229 228 228 228 228 227 228 228 228 228 229 231 231 232 232 233 233 233 233 234 236 238 238 239 240 241 243 244 246 248 250 253 255 257 260 262 265 267 269 272 275 277 279 282 285 287 289 291
229 228 227 227 227 227 226 226 227 227 227 228 229 231 232 232 233 233 233 234 235 236 238 239 240 240 241 243 244 246 249 251 254 257 258 259 261 263 266 269 272 275 278 278 281 283 285 288 290
227 227 227 226 226 226 226 225 225 226 226 227 228 229 231 232 233 233 233 234 235 236 237 239 240 241 242 243 244 247 249 251 253 255 257 259 261 263 265 267 271 274 277 279 281 283 285 287 289
226 226 226 226 225 225 226 225 225 224 226 227 228 229 230 231 232 234 235 235 236 237 238 239 240 241 242 244 245 246 249 251 253 255 257 259 261 264 265 267 270 272 275 278 280 282 284 286 287
226 226 225 226 225 225 226 225 224 224 225 226 227 229 230 231 232 233 234 235 236 237 238 239 240 242 243 245 246 247 249 251 254 255 257 259 261 263 265 267 270 272 274 277 279 280 282 284 286
224 225 224 224 225 224 225 225 223 224 224 225 227 228 229 231 232 233 234 235 236 237 238 239 240 241 243 244 246 248 250 252 254 255 257 258 261 263 265 267 269 271 273 276 278 279 281 282 285
224 224 224 223 225 225 226 225 224 224 225 225 226 228 229 231 232 233 234 235 236 237 238 239 240 241 242 244 245 248 250 252 253 255 256 258 259 262 265 267 269 271 272 274 277 279 280 281 283
225 225 225 225 225 224 226 226 225 225 226 226 227 228 230 231 232 233 234 236 237 238 239 240 240 241 242 244 245 247 249 251 252 254 256 258 260 261 263 266 268 270 272 273 276 278 279 280 282
228 228 227 227 226 226 226 226 225 225 226 227 228 229 230 231 232 234 235 236 237 238 239 240 241 242 244 245 246 247 249 251 253 254 255 257 259 261 262 264 266 268 271 272 274 276 277 279 281
226 226 227 227 228 228 227 227 226 226 226 228 228 229 231 232 232 234 235 237 237 238 240 240 242 243 244 246 247 248 250 251 253 255 256 258 259 260 261 261 264 267 269 271 273 274 276 279 280
225 225 225 226 228 229 229 229 228 227 227 228 228 229 231 232 233 235 236 238 238 238 239 241 242 243 244 246 247 248 250 252 253 255 256 258 258 259 260 262 264 267 268 270 273 274 276 277 279
224 224 225 227 229 230 229 231 229 229 229 229 229 230 232 234 234 236 238 239 239 239 240 241 243 244 245 246 248 249 251 253 255 256 257 258 259 261 262 263 263 265 267 268 270 273 276 277 278
222 224 226 228 230 233 231 233 231 231 231 231 232 233 234 236 236 237 239 240 240 240 240 242 243 244 245 247 249 250 251 253 255 257 259 261 261 262 263 264 263 265 268 269 270 272 274 276 278
222 222 225 227 228 232 231 233 233 232 233 234 234 235 235 237 238 239 240 240 241 241 241 241 243 244 246 248 249 251 253 255 256 258 260 262 262 263 263 264 265 266 269 269 270 272 274 276 277
221 221 223 225 228 231 232 235 235 233 233 234 235 236 236 237 238 239 239 240 241 242 242 243 243 245 247 248 250 252 254 256 257 258 260 262 262 262 263 265 266 267 269 269 270 272 273 275 276
221 223 225 229 232 233 234 236 235 233 233 234 234 235 236 237 238 239 239 240 241 242 243 244 245 246 248 249 250 252 254 255 256 258 260 261 262 263 264 267 268 269 269 269 270 272 273 274 276
223 224 228 233 237 238 238 239 239 236 235 235 236 236 237 238 238 239 240 240 241 242 243 244 244 246 248 249 250 252 254 255 257 259 260 261 261 263 264 267 268 269 270 271 271 271 272 273 275
228 227 228 233 239 242 242 241 240 239 238 238 238 237 237 238 238 239 240 240 241 243 243 244 245 247 248 249 251 253 255 256 257 258 258 259 260 262 263 266 268 269 270 271 271 270 271 273 275
225 227 230 235 241 245 246 244 241 240 239 239 239 238 238 239 239 239 240 241 242 243 244 245 246 246 248 249 250 253 254 255 256 256 258 258 260 261 263 265 267 269 270 270 271 271 272 273 273
230 233 235 237 241 246 248 248 244 242 241 240 239 239 240 239 239 239 240 241 242 244 245 246 247 247 248 249 250 252 254 256 256 256 258 260 261 261 263 265 266 268 269 270 272 272 272 272 273
Height
5807 5810 5813 5816 5819 5822 5826 5831 5835 5839 5842 5845 5847 5850 5853 5856 5859 5863 5864 5864 5865 5867 5868 5869 5870 5872 5873 5874 5875 5876 5877 5878 5879 5880 5881 5881 5882 5883 5883 5884 5884 5884 5885 5884 5884 5884 5884 5883 5883
5800 5803 5806 5809 5812 5816 5822 5828 5831 5835 5838 5841 5844 5846 5849 5852 5855 5858 5860 5861 5863 5865 5866 5867 5869 5870 5871 5872 5874 5875 5876 5877 5878 5879 5880 5880 5881 5882 5882 5883 5883 5883 5883 5883 5883 5883 5883 5882 5882
5792 5795 5799 5802 5805 5811 5819 5823 5827 5830 5833 5837 5840 5843 5846 5849 5852 5854 5857 5859 5861 5862 5864 5865 5867 5868 5870 5871 5872 5873 5874 5875 5876 5877 5878 5879 5880 5880 5881 5881 5882 5882 5882 5882 5882 5881 5881 5881 5880
5784 5787 5790 5794 5799 5808 5814 5818 5821 5824 5828 5832 5836 5839 5842 5846 5848 5851 5853 5856 5858 5860 5861 5863 5865 5866 5868 5869 5870 5872 5873 5874 5875 5876 5877 5877 5878 5879 5879 5880 5880 5880 5880 5880 5880 5880 5879 5878 5878
5774 5778 5782 5786 5794 5802 5807 5811 5815 5819 5823 5827 5831 5835 5838 5842 5844 5847 5850 5852 5855 5857 5859 5860 5862 5864 5865 5867 5868 5869 5870 5872 5873 5874 5875 5875 5876 5877 5877 5878 5878 5878 5878 5878 5878 5877 5877 5876 5876
5764 5768 5773 5779 5788 5795 5801 5805 5809 5813 5817 5822 5826 5830 5834 5838 5841 5843 5846 5849 5851 5854 5856 5857 5859 5861 5863 5864 5866 5867 5868 5869 5870 5871 5872 5873 5874 5874 5875 5876 5876 5876 5876 5876 5875 5875 5874 5874 5873
5755 5760 5765 5774 5781 5788 5794 5798 5802 5807 5812 5816 5820 5825 5829 5833 5836 5839 5842 5845 5847 5850 5852 5854 5856 5858 5860 5861 5863 5864 5865 5866 5867 5868 5869 5870 5871 5872 5873 5873 5873 5873 5873 5873 5873 5872 5872 5871 5871
5745 5751 5757 5765 5773 5781 5787 5791 5796 5800 5806 5810 5814 5819 5824 5828 5831 5834 5837 5840 5843 5846 5848 5851 5853 5855 5856 5858 5859 5861 5862 5863 5864 5865 5866 5867 5868 5869 5870 5870 5870 5871 5871 5870 5870 5870 5869 5869 5868
5735 5742 5748 5758 5766 5773 5778 5784 5789 5793 5799 5804 5808 5814 5818 5822 5825 5829 5832 5836 5839 5841 5844 5846 5849 5851 5853 5854 5856 5857 5859 5860 5861 5862 5863 5864 5865 5866 5867 5867 5867 5867 5867 5867 5867 5866 5866 5866 5865
5725 5732 5743 5751 5757 5764 5770 5776 5781 5786 5792 5797 5802 5807 5811 5816 5820 5824 5827 5831 5834 5837 5840 5842 5844 5847 5849 5850 5852 5854 5855 5857 5858 5859 5860 5861 5862 5862 5863 5863 5864 5864 5864 5864 5864 5863 5863 5862 5861
5716 5725 5735 5741 5748 5754 5761 5767 5773 5778 5785 5791 5797 5801 5805 5809 5814 5818 5822 5825 5829 5832 5834 5837 5840 5842 5844 5846 5848 5850 5851 5853 5854 5855 5856 5857 5858 5858 5859 5860 5860 5860 5860 5860 5860 5859 5859 5858 5857
5708 5717 5724 5732 5739 5745 5752 5758 5764 5771 5779 5784 5789 5794 5798 5803 5807 5812 5816 5819 5823 5826 5829 5832 5834 5837 5839 5841 5843 5845 5847 5848 5850 5850 5851 5853 5853 5854 5855 5855 5855 5856 5855 5855 5855 5855 5854 5854 5853
5699 5708 5715 5722 5729 5736 5743 5750 5757 5764 5770 5775 5781 5786 5791 5796 5801 5805 5809 5813 5816 5820 5823 5826 5829 5831 5833 5835 5838 5840 5842 5843 5845 5846 5847 5848 5849 5849 5850 5851 5851 5851 5851 5851 5851 5850 5850 5849 5848
5691 5698 5705 5712 5719 5727 5734 5741 5748 5757 5762 5768 5773 5779 5784 5789 5794 5798 5802 5806 5810 5813 5817 5820 5822 5825 5827 5830 5832 5834 5836 5838 5839 5840 5841 5842 5843 5844 5845 5845 5846 5846 5846 5846 5845 5845 5845 5844 5843
5682 5689 5696 5703 5710 5718 5725 5732 5741 5750 5754 5760 5765 5771 5776 5781 5786 5791 5795 5799 5803 5807 5810 5813 5816 5818 5821 5823 5826 5828 5830 5832 5833 5834 5835 5836 5837 5838 5839 5840 5840 5840 5840 5840 5840 5839 5839 5838 5837
5672 5679 5687 5695 5701 5708 5717 5725 5734 5740 5745 5752 5757 5763 5768 5773 5778 5783 5787 5792 5796 5799 5802 5806 5809 5812 5814 5817 5819 5821 5823 5825 5826 5827 5829 5830 5831 5832 5833 5833 5834 5834 5834 5834 5834 5833 5833 5832 5831
5662 5670 5678 5687 5693 5700 5707 5716 5725 5731 5737 5743 5749 5755 5760 5766 5771 5775 5780 5784 5788 5792 5795 5798 5801 5804 5807 5810 5812 5814 5816 5818 5819 5821 5822 5823 5824 5825 5826 5827 5827 5828 5828 5828 5827 5827 5826 5826 5825
5656 5664 5671 5678 5685 5692 5698 5707 5716 5721 5728 5735 5741 5747 5752 5758 5763 5767 5772 5776 5780 5784 5787 5790 5793 5796 5799 5802 5805 5807 5809 5811 5812 5813 5815 5816 5817 5818 5819 5819 5820 5821 5821 5821 5820 5820 5819 5819 5818
5650 5657 5663 5670 5677 5683 5690 5698 5706 5712 5719 5726 5733 5739 5745 5750 5755 5759 5764 5768 5771 5775 5779 5782 5785 5788 5791 5794 5796 5799 5801 5803 5804 5806 5807 5808 5809 5810 5811 5812 5812 5813 5813 5813 5813 5813 5812 5811 5811
5641 5648 5655 5662 5668 5675 5681 5689 5696 5703 5711 5718 5724 5730 5736 5742 5746 5751 5755 5759 5763 5767 5770 5773 5776 5779 5782 5785 5788 5790 5792 5794 5796 5798 5799 5800 5801 5802 5802 5803 5804 5804 5805 5805 5805 5805 5804 5804 5803
5634 5641 5648 5654 5661 5666 5672 5679 5687 5694 5701 5708 5715 5721 5727 5733 5738 5742 5746 5750 5754 5758 5761 5764 5768 5771 5774 5777 5779 5782 5784 5786 5787 5789 5790 5791 5792 5793 5794 5794 5795 5796 5797 5797 5796 5796 5796 5795 5795
5629 5636 5641 5647 5652 5657 5663 5668 5678 5685 5692 5699 5706 5713 5718 5724 5729 5733 5737 5741 5745 5748 5752 5755 5758 5762 5765 5767 5770 5773 5775 5777 5779 5780 5781 5782 5783 5784 5784 5785 5786 5786 5787 5788 5788 5788 5787 5787 5786
5625 5630 5635 5640 5645 5649 5655 5660 5668 5676 5683 5691 5698 5704 5710 5715 5720 5724 5728 5732 5736 5739 5743 5746 5749 5752 5755 5758 5761 5763 5766 5767 5769 5771 5772 5773 5774 5774 5775 5775 5776 5777 5777 5778 5778 5778 5778 5778 5777
5619 5624 5629 5633 5637 5641 5647 5652 5659 5668 5676 5683 5689 5695 5700 5705 5710 5714 5718 5722 5726 5730 5733 5737 5740 5743 5746 5749 5751 5754 5756 5758 5760 5761 5762 5763 5764 5764 5765 5765 5766 5767 5767 5768 5768 5768 5768 5768 5768
5613 5618 5622 5625 5628 5633 5640 5644 5652 5662 5668 5674 5679 5685 5690 5695 5700 5704 5708 5712 5716 5720 5724 5727 5730 5734 5736 5739 5742 5744 5746 5748 5750 5751 5752 5754 5754 5755 5755 5756 5756 5757 5757 5758 5758 5758 5758 5758 5757
5609 5614 5618 5621 5623 5628 5633 5637 5646 5654 5659 5664 5670 5675 5679 5684 5689 5694 5698 5702 5707 5710 5714 5717 5721 5724 5727 5729 5732 5734 5737 5738 5740 5741 5742 5743 5744 5745 5746 5746 5746 5747 5747 5747 5748 5748 5747 5747 5747
5605 5609 5614 5617 5620 5623 5627 5632 5639 5646 5651 5656 5660 5665 5670 5675 5679 5684 5688 5693 5697 5700 5704 5707 5711 5714 5717 5720 5722 5724 5726 5728 5729 5731 5732 5733 5734 5735 5736 5736 5737 5737 5737 5737 5737 5737 5737 5737 5737
5602 5605 5609 5612 5614 5617 5622 5627 5633 5639 5644 5648 5652 5656 5661 5665 5669 5674 5678 5682 5686 5690 5694 5697 5700 5703 5706 5709 5712 5714 5716 5718 5719 5720 5721 5723 5724 5725 5725 5726 5726 5727 5727 5726 5726 5727 5727 5727 5727
5598 5601 5604 5607 5610 5613 5616 5624 5628 5632 5636 5640 5644 5647 5651 5655 5660 5664 5668 5672 5676 5680 5683 5686 5690 5693 5696 5699 5701 5703 5705 5707 5708 5710 5711 5712 5713 5714 5715 5716 5716 5716 5716 5716 5716 5716 5717 5717 5717
5594 5597 5600 5603 5606 5608 5611 5619 5621 5625 5627 5631 5634 5638 5641 5646 5650 5654 5658 5662 5666 5669 5673 5676 5679 5682 5685 5688 5690 5692 5694 5696 5697 5699 5700 5701 5702 5703 5704 5705 5706 5706 5706 5706 5706 5706 5706 5706 5706